Time,TemperatureF,DewpointF,PressureIn,WindDirection,WindDirectionDegrees,WindSpeedMPH,WindSpeedGustMPH,Humidity,HourlyPrecipIn,Conditions,Clouds,dailyrainin,SoftwareType,DateUTC
2013-12-13 00:07:00,20.5,-0.6,30.33,North,-999,0.0,0.0,39,0.00,,,-99.99,FreeWX 2.04,2013-12-13 05:07:00,
2013-12-13 00:17:00,20.8,1.4,30.33,North,-999,0.0,0.0,42,0.00,,,-99.99,FreeWX 2.04,2013-12-13 05:17:00,
2013-12-13 00:27:00,21.2,1.2,30.33,North,-999,0.0,0.0,41,0.00,,,-99.99,FreeWX 2.04,2013-12-13 05:27:00,
2013-12-13 00:38:00,21.0,0.5,30.33,North,-999,0.0,0.0,40,0.00,,,-99.99,FreeWX 2.04,2013-12-13 05:38:00,
2013-12-13 00:48:00,21.0,0.5,30.33,North,-999,0.0,0.0,40,0.00,,,-99.99,FreeWX 2.04,2013-12-13 05:48:00,
2013-12-13 00:58:00,21.0,0.5,30.33,North,-999,0.0,0.0,40,0.00,,,-99.99,FreeWX 2.04,2013-12-13 05:58:00,
2013-12-13 01:08:00,21.0,0.0,30.33,North,-999,0.0,0.0,39,0.00,,,-99.99,FreeWX 2.04,2013-12-13 06:08:00,
2013-12-13 01:18:00,21.0,0.0,30.33,North,-999,0.0,0.0,39,0.00,,,-99.99,FreeWX 2.04,2013-12-13 06:18:00,
2013-12-13 01:28:00,20.8,-0.8,30.33,North,-999,0.0,0.0,38,0.00,,,-99.99,FreeWX 2.04,2013-12-13 06:28:00,
2013-12-13 01:38:00,20.8,-0.2,30.33,North,-999,0.0,0.0,39,0.00,,,-99.99,FreeWX 2.04,2013-12-13 06:38:00,
2013-12-13 01:48:00,20.8,0.9,30.33,North,-999,0.0,0.0,41,0.00,,,-99.99,FreeWX 2.04,2013-12-13 06:48:00,
2013-12-13 01:58:00,20.5,0.5,30.33,North,-999,0.0,0.0,41,0.00,,,-99.99,FreeWX 2.04,2013-12-13 06:58:00,
2013-12-13 02:08:00,20.5,1.0,30.33,North,-999,0.0,0.0,42,0.00,,,-99.99,FreeWX 2.04,2013-12-13 07:08:00,
2013-12-13 02:18:00,20.5,0.5,30.33,North,-999,0.0,0.0,41,0.00,,,-99.99,FreeWX 2.04,2013-12-13 07:18:00,
2013-12-13 02:28:00,20.5,0.5,30.33,North,-999,0.0,0.0,41,0.00,,,-99.99,FreeWX 2.04,2013-12-13 07:28:00,
2013-12-13 02:38:00,20.5,0.5,30.33,North,-999,0.0,0.0,41,0.00,,,-99.99,FreeWX 2.04,2013-12-13 07:38:00,
2013-12-13 02:48:00,20.8,0.9,30.33,North,-999,0.0,0.0,41,0.00,,,-99.99,FreeWX 2.04,2013-12-13 07:48:00,
2013-12-13 02:58:00,21.4,0.3,30.33,North,-999,0.0,0.0,39,0.00,,,-99.99,FreeWX 2.04,2013-12-13 07:58:00,
2013-12-13 03:08:00,21.4,-0.2,30.33,North,-999,0.0,0.0,38,0.00,,,-99.99,FreeWX 2.04,2013-12-13 08:08:00,
2013-12-13 03:18:00,21.4,-0.8,30.33,North,-999,0.0,0.0,37,0.00,,,-99.99,FreeWX 2.04,2013-12-13 08:18:00,
2013-12-13 03:28:00,21.4,-0.8,30.33,North,-999,0.0,0.0,37,0.00,,,-99.99,FreeWX 2.04,2013-12-13 08:28:00,
2013-12-13 03:38:00,21.4,-1.3,30.33,North,-999,0.0,0.0,36,0.00,,,-99.99,FreeWX 2.04,2013-12-13 08:38:00,
2013-12-13 03:48:00,21.4,-1.3,30.33,North,-999,0.0,0.0,36,0.00,,,-99.99,FreeWX 2.04,2013-12-13 08:48:00,
2013-12-13 03:58:00,21.6,-1.3,30.30,North,-999,0.0,0.0,36,0.00,,,-99.99,FreeWX 2.04,2013-12-13 08:58:00,
2013-12-13 04:08:00,21.2,-2.2,30.30,North,-999,0.0,0.0,35,0.00,,,-99.99,FreeWX 2.04,2013-12-13 09:08:00,
2013-12-13 04:18:00,20.7,-2.0,30.30,North,-999,0.0,0.0,36,0.00,,,-99.99,FreeWX 2.04,2013-12-13 09:18:00,
2013-12-13 04:28:00,20.5,-1.7,30.30,North,-999,0.0,0.0,37,0.00,,,-99.99,FreeWX 2.04,2013-12-13 09:28:00,
2013-12-13 04:38:00,20.3,-1.1,30.30,North,-999,0.0,0.0,38,0.00,,,-99.99,FreeWX 2.04,2013-12-13 09:38:00,
2013-12-13 04:48:00,19.9,-2.0,30.30,North,-999,0.0,0.0,37,0.00,,,-99.99,FreeWX 2.04,2013-12-13 09:48:00,
2013-12-13 04:58:00,19.8,-1.7,30.30,North,-999,0.0,0.0,38,0.00,,,-99.99,FreeWX 2.04,2013-12-13 09:58:00,
2013-12-13 05:08:00,19.6,-1.3,30.30,North,-999,0.0,0.0,39,0.00,,,-99.99,FreeWX 2.04,2013-12-13 10:08:00,
2013-12-13 05:18:00,19.4,-1.5,30.30,North,-999,0.0,0.0,39,0.00,,,-99.99,FreeWX 2.04,2013-12-13 10:18:00,
2013-12-13 05:28:00,19.2,-1.1,30.30,North,-999,0.0,0.0,40,0.00,,,-99.99,FreeWX 2.04,2013-12-13 10:28:00,
2013-12-13 05:38:00,19.2,-1.1,30.30,North,-999,0.0,0.0,40,0.00,,,-99.99,FreeWX 2.04,2013-12-13 10:38:00,
2013-12-13 05:48:00,19.0,-1.3,30.30,North,-999,0.0,0.0,40,0.00,,,-99.99,FreeWX 2.04,2013-12-13 10:48:00,
2013-12-13 05:58:00,18.7,-1.7,30.30,North,-999,0.0,0.0,40,0.00,,,-99.99,FreeWX 2.04,2013-12-13 10:58:00,
2013-12-13 06:08:00,18.5,-1.3,30.30,North,-999,0.0,0.0,41,0.00,,,-99.99,FreeWX 2.04,2013-12-13 11:08:00,
2013-12-13 06:18:00,18.5,-0.8,30.30,North,-999,0.0,0.0,42,0.00,,,-99.99,FreeWX 2.04,2013-12-13 11:18:00,
2013-12-13 06:28:00,18.1,-1.1,30.30,North,-999,0.0,0.0,42,0.00,,,-99.99,FreeWX 2.04,2013-12-13 11:28:00,
2013-12-13 06:38:00,18.1,-0.6,30.30,North,-999,0.0,0.0,43,0.00,,,-99.99,FreeWX 2.04,2013-12-13 11:38:00,
2013-12-13 06:48:00,18.0,-0.8,30.30,North,-999,0.0,0.0,43,0.00,,,-99.99,FreeWX 2.04,2013-12-13 11:48:00,
2013-12-13 06:58:00,18.0,-0.2,30.27,North,-999,0.0,0.0,44,0.00,,,-99.99,FreeWX 2.04,2013-12-13 11:58:00,
2013-12-13 07:08:00,17.8,-0.4,30.30,North,-999,0.0,0.0,44,0.00,,,-99.99,FreeWX 2.04,2013-12-13 12:08:00,
2013-12-13 07:18:00,17.8,-0.4,30.30,North,-999,0.0,0.0,44,0.00,,,-99.99,FreeWX 2.04,2013-12-13 12:18:00,
2013-12-13 07:28:00,17.6,-0.6,30.30,North,-999,0.0,0.0,44,0.00,,,-99.99,FreeWX 2.04,2013-12-13 12:28:00,
2013-12-13 07:38:00,17.6,-0.6,30.30,North,-999,0.0,0.0,44,0.00,,,-99.99,FreeWX 2.04,2013-12-13 12:38:00,
2013-12-13 07:48:00,17.6,-0.6,30.30,North,-999,0.0,0.0,44,0.00,,,-99.99,FreeWX 2.04,2013-12-13 12:48:00,
2013-12-13 07:58:00,18.3,0.1,30.30,North,-999,0.0,0.0,44,0.00,,,-99.99,FreeWX 2.04,2013-12-13 12:58:00,
2013-12-13 08:08:00,18.7,0.5,30.30,North,-999,0.0,0.0,44,0.00,,,-99.99,FreeWX 2.04,2013-12-13 13:08:00,
2013-12-13 08:18:00,19.4,1.0,30.30,North,-999,0.0,0.0,44,0.00,,,-99.99,FreeWX 2.04,2013-12-13 13:18:00,
2013-12-13 08:28:00,20.3,2.5,30.30,North,-999,0.0,0.0,45,0.00,,,-99.99,FreeWX 2.04,2013-12-13 13:28:00,
2013-12-13 08:38:00,21.2,3.2,30.30,North,-999,0.0,0.0,45,0.00,,,-99.99,FreeWX 2.04,2013-12-13 13:38:00,
2013-12-13 08:48:00,21.9,3.9,30.30,North,-999,0.0,0.0,45,0.00,,,-99.99,FreeWX 2.04,2013-12-13 13:48:00,
2013-12-13 08:58:00,23.0,4.5,30.30,North,-999,0.0,0.0,44,0.00,,,-99.99,FreeWX 2.04,2013-12-13 13:58:00,
2013-12-13 09:08:00,24.4,5.2,30.30,North,-999,0.0,0.0,43,0.00,,,-99.99,FreeWX 2.04,2013-12-13 14:08:00,
2013-12-13 09:18:00,25.7,5.9,30.30,North,-999,0.0,0.0,42,0.00,,,-99.99,FreeWX 2.04,2013-12-13 14:18:00,
2013-12-13 09:28:00,27.1,5.0,30.30,North,-999,0.0,0.0,38,0.00,,,-99.99,FreeWX 2.04,2013-12-13 14:28:00,
2013-12-13 09:38:00,28.8,3.4,30.30,North,-999,0.0,0.0,33,0.00,,,-99.99,FreeWX 2.04,2013-12-13 14:38:00,
2013-12-13 09:48:00,30.2,3.9,30.30,North,-999,0.0,0.0,32,0.00,,,-99.99,FreeWX 2.04,2013-12-13 14:48:00,
2013-12-13 09:58:00,31.5,2.1,30.30,North,-999,0.0,0.0,28,0.00,,,-99.99,FreeWX 2.04,2013-12-13 14:58:00,
2013-12-13 10:08:00,32.5,0.7,30.30,North,-999,0.0,3.1,25,0.00,,,-99.99,FreeWX 2.04,2013-12-13 15:08:00,
2013-12-13 10:18:00,33.6,1.6,30.30,North,-999,0.0,0.0,25,0.00,,,-99.99,FreeWX 2.04,2013-12-13 15:18:00,
2013-12-13 10:28:00,34.9,1.8,30.30,North,-999,0.0,0.0,24,0.00,,,-99.99,FreeWX 2.04,2013-12-13 15:28:00,
2013-12-13 10:38:00,35.6,0.5,30.30,North,-999,0.0,3.1,22,0.00,,,-99.99,FreeWX 2.04,2013-12-13 15:38:00,
2013-12-13 10:48:00,36.9,0.7,30.30,North,-999,0.0,4.0,21,0.00,,,-99.99,FreeWX 2.04,2013-12-13 15:48:00,
2013-12-13 10:58:00,37.8,1.4,30.30,North,-999,0.0,4.5,21,0.00,,,-99.99,FreeWX 2.04,2013-12-13 15:58:00,
2013-12-13 11:08:00,38.5,1.9,30.27,North,-999,0.0,4.5,21,0.00,,,-99.99,FreeWX 2.04,2013-12-13 16:08:00,
2013-12-13 11:18:00,38.8,2.3,30.27,North,-999,0.0,5.8,21,0.00,,,-99.99,FreeWX 2.04,2013-12-13 16:18:00,
2013-12-13 11:28:00,40.1,3.4,30.27,North,-999,0.0,6.9,21,0.00,,,-99.99,FreeWX 2.04,2013-12-13 16:28:00,
2013-12-13 11:38:00,40.3,3.6,30.27,North,-999,0.0,6.7,21,0.00,,,-99.99,FreeWX 2.04,2013-12-13 16:38:00,
2013-12-13 11:48:00,40.5,3.6,30.27,North,350,1.0,6.3,21,0.00,,,-99.99,FreeWX 2.04,2013-12-13 16:48:00,
2013-12-13 11:58:00,40.6,3.7,30.27,North,349,1.0,7.4,21,0.00,,,-99.99,FreeWX 2.04,2013-12-13 16:58:00,
2013-12-13 12:08:00,41.9,4.8,30.27,North,-999,0.0,5.8,21,0.00,,,-99.99,FreeWX 2.04,2013-12-13 17:08:00,
2013-12-13 12:18:00,42.1,3.9,30.27,NNW,346,1.0,9.6,20,0.00,,,-99.99,FreeWX 2.04,2013-12-13 17:18:00,
2013-12-13 12:28:00,42.1,3.9,30.27,North,-999,0.0,10.1,20,0.00,,,-99.99,FreeWX 2.04,2013-12-13 17:28:00,
2013-12-13 12:38:00,42.8,4.5,30.24,North,-999,0.0,6.3,20,0.00,,,-99.99,FreeWX 2.04,2013-12-13 17:38:00,
2013-12-13 12:48:00,43.5,5.2,30.24,North,-999,0.0,5.8,20,0.00,,,-99.99,FreeWX 2.04,2013-12-13 17:48:00,
2013-12-13 12:58:00,43.9,5.4,30.24,North,-999,0.0,6.7,20,0.00,,,-99.99,FreeWX 2.04,2013-12-13 17:58:00,
2013-12-13 13:08:00,43.7,5.4,30.24,North,-999,0.0,6.3,20,0.00,,,-99.99,FreeWX 2.04,2013-12-13 18:08:00,
2013-12-13 13:18:00,44.1,5.5,30.24,North,-999,0.0,5.4,20,0.00,,,-99.99,FreeWX 2.04,2013-12-13 18:18:00,
2013-12-13 13:28:00,44.6,6.1,30.24,North,-999,0.0,4.9,20,0.00,,,-99.99,FreeWX 2.04,2013-12-13 18:28:00,
2013-12-13 13:38:00,44.1,5.5,30.21,North,-999,0.0,4.0,20,0.00,,,-99.99,FreeWX 2.04,2013-12-13 18:38:00,
2013-12-13 13:48:00,43.0,4.6,30.21,North,-999,0.0,6.9,20,0.00,,,-99.99,FreeWX 2.04,2013-12-13 18:48:00,
2013-12-13 13:58:00,43.0,4.6,30.21,North,-999,0.0,6.7,20,0.00,,,-99.99,FreeWX 2.04,2013-12-13 18:58:00,
2013-12-13 14:08:00,43.7,5.4,30.21,North,-999,0.0,0.0,20,0.00,,,-99.99,FreeWX 2.04,2013-12-13 19:08:00,
2013-12-13 14:18:00,43.0,4.6,30.21,North,-999,0.0,4.0,20,0.00,,,-99.99,FreeWX 2.04,2013-12-13 19:18:00,
2013-12-13 14:28:00,43.5,5.2,30.21,North,-999,0.0,0.0,20,0.00,,,-99.99,FreeWX 2.04,2013-12-13 19:28:00,
2013-12-13 14:38:00,44.1,5.5,30.21,North,-999,0.0,3.6,20,0.00,,,-99.99,FreeWX 2.04,2013-12-13 19:38:00,
2013-12-13 14:48:00,44.1,5.5,30.21,North,-999,0.0,4.5,20,0.00,,,-99.99,FreeWX 2.04,2013-12-13 19:48:00,
2013-12-13 14:58:00,44.8,6.3,30.21,North,-999,0.0,4.0,20,0.00,,,-99.99,FreeWX 2.04,2013-12-13 19:58:00,
2013-12-13 15:08:00,44.1,5.5,30.21,North,-999,0.0,4.5,20,0.00,,,-99.99,FreeWX 2.04,2013-12-13 20:08:00,
2013-12-13 15:18:00,44.2,5.7,30.21,North,-999,0.0,4.0,20,0.00,,,-99.99,FreeWX 2.04,2013-12-13 20:18:00,
2013-12-13 15:28:00,44.2,5.7,30.21,North,-999,0.0,7.4,20,0.00,,,-99.99,FreeWX 2.04,2013-12-13 20:28:00,
2013-12-13 15:38:00,44.1,5.5,30.21,North,-999,0.0,4.0,20,0.00,,,-99.99,FreeWX 2.04,2013-12-13 20:38:00,
2013-12-13 15:48:00,43.5,5.2,30.21,North,-999,0.0,4.0,20,0.00,,,-99.99,FreeWX 2.04,2013-12-13 20:48:00,
2013-12-13 15:58:00,43.2,4.8,30.21,North,-999,0.0,3.1,20,0.00,,,-99.99,FreeWX 2.04,2013-12-13 20:58:00,
2013-12-13 16:08:00,42.4,4.3,30.18,North,-999,0.0,0.0,20,0.00,,,-99.99,FreeWX 2.04,2013-12-13 21:08:00,
2013-12-13 16:18:00,41.9,3.7,30.18,North,-999,0.0,0.0,20,0.00,,,-99.99,FreeWX 2.04,2013-12-13 21:18:00,
2013-12-13 16:28:00,41.5,4.5,30.18,North,-999,0.0,0.0,21,0.00,,,-99.99,FreeWX 2.04,2013-12-13 21:28:00,
2013-12-13 16:39:00,41.2,4.3,30.18,North,-999,0.0,3.1,21,0.00,,,-99.99,FreeWX 2.04,2013-12-13 21:39:00,
2013-12-13 16:49:00,40.6,3.7,30.18,North,-999,0.0,0.0,21,0.00,,,-99.99,FreeWX 2.04,2013-12-13 21:49:00,
2013-12-13 16:59:00,39.9,3.2,30.18,North,-999,0.0,0.0,21,0.00,,,-99.99,FreeWX 2.04,2013-12-13 21:59:00,
2013-12-13 17:09:00,39.6,2.8,30.18,North,-999,0.0,0.0,21,0.00,,,-99.99,FreeWX 2.04,2013-12-13 22:09:00,
2013-12-13 17:19:00,38.8,2.3,30.18,North,-999,0.0,0.0,21,0.00,,,-99.99,FreeWX 2.04,2013-12-13 22:19:00,
2013-12-13 17:29:00,38.3,1.8,30.18,North,-999,0.0,0.0,21,0.00,,,-99.99,FreeWX 2.04,2013-12-13 22:29:00,
2013-12-13 17:39:00,37.9,1.6,30.18,North,-999,0.0,0.0,21,0.00,,,-99.99,FreeWX 2.04,2013-12-13 22:39:00,
2013-12-13 17:49:00,37.4,1.0,30.18,North,-999,0.0,0.0,21,0.00,,,-99.99,FreeWX 2.04,2013-12-13 22:49:00,
2013-12-13 17:59:00,37.0,0.9,30.18,North,-999,0.0,0.0,21,0.00,,,-99.99,FreeWX 2.04,2013-12-13 22:59:00,
2013-12-13 18:09:00,36.9,0.7,30.18,North,-999,0.0,0.0,21,0.00,,,-99.99,FreeWX 2.04,2013-12-13 23:09:00,
2013-12-13 18:19:00,36.7,0.5,30.18,North,-999,0.0,0.0,21,0.00,,,-99.99,FreeWX 2.04,2013-12-13 23:19:00,
2013-12-13 18:29:00,36.3,1.2,30.18,North,-999,0.0,0.0,22,0.00,,,-99.99,FreeWX 2.04,2013-12-13 23:29:00,
2013-12-13 18:39:00,35.8,0.7,30.18,North,-999,0.0,0.0,22,0.00,,,-99.99,FreeWX 2.04,2013-12-13 23:39:00,
2013-12-13 18:49:00,35.6,0.5,30.18,North,-999,0.0,0.0,22,0.00,,,-99.99,FreeWX 2.04,2013-12-13 23:49:00,
2013-12-13 18:59:00,35.1,0.1,30.18,North,-999,0.0,0.0,22,0.00,,,-99.99,FreeWX 2.04,2013-12-13 23:59:00,
2013-12-13 19:09:00,34.7,-0.2,30.18,North,-999,0.0,0.0,22,0.00,,,-99.99,FreeWX 2.04,2013-12-14 00:09:00,
2013-12-13 19:19:00,34.3,-0.6,30.18,North,-999,0.0,0.0,22,0.00,,,-99.99,FreeWX 2.04,2013-12-14 00:19:00,
2013-12-13 19:29:00,34.2,-0.6,30.21,North,-999,0.0,0.0,22,0.00,,,-99.99,FreeWX 2.04,2013-12-14 00:29:00,
2013-12-13 19:39:00,34.0,-0.8,30.21,North,-999,0.0,0.0,22,0.00,,,-99.99,FreeWX 2.04,2013-12-14 00:39:00,
2013-12-13 19:49:00,34.2,2.1,30.21,North,-999,0.0,0.0,25,0.00,,,-99.99,FreeWX 2.04,2013-12-14 00:49:00,
2013-12-13 19:59:00,33.6,1.6,30.21,North,-999,0.0,0.0,25,0.00,,,-99.99,FreeWX 2.04,2013-12-14 00:59:00,
2013-12-13 20:09:00,33.6,1.6,30.21,North,-999,0.0,0.0,25,0.00,,,-99.99,FreeWX 2.04,2013-12-14 01:09:00,
2013-12-13 20:19:00,33.6,5.5,30.21,North,-999,0.0,0.0,30,0.00,,,-99.99,FreeWX 2.04,2013-12-14 01:19:00,
2013-12-13 20:29:00,33.4,3.0,30.21,North,-999,0.0,0.0,27,0.00,,,-99.99,FreeWX 2.04,2013-12-14 01:29:00,
2013-12-13 20:39:00,33.3,3.0,30.21,North,-999,0.0,0.0,27,0.00,,,-99.99,FreeWX 2.04,2013-12-14 01:39:00,
2013-12-13 20:49:00,33.3,3.0,30.21,North,-999,0.0,0.0,27,0.00,,,-99.99,FreeWX 2.04,2013-12-14 01:49:00,
2013-12-13 20:59:00,33.4,3.0,30.18,North,-999,0.0,0.0,27,0.00,,,-99.99,FreeWX 2.04,2013-12-14 01:59:00,
2013-12-13 21:09:00,33.4,3.0,30.21,North,-999,0.0,0.0,27,0.00,,,-99.99,FreeWX 2.04,2013-12-14 02:09:00,
2013-12-13 21:19:00,33.3,5.2,30.21,North,-999,0.0,0.0,30,0.00,,,-99.99,FreeWX 2.04,2013-12-14 02:19:00,
2013-12-13 21:29:00,33.3,5.2,30.21,North,-999,0.0,0.0,30,0.00,,,-99.99,FreeWX 2.04,2013-12-14 02:29:00,
2013-12-13 21:39:00,33.3,5.2,30.18,North,-999,0.0,0.0,30,0.00,,,-99.99,FreeWX 2.04,2013-12-14 02:39:00,
2013-12-13 21:49:00,33.4,5.4,30.18,North,-999,0.0,0.0,30,0.00,,,-99.99,FreeWX 2.04,2013-12-14 02:49:00,
2013-12-13 21:59:00,33.4,5.4,30.18,North,-999,0.0,0.0,30,0.00,,,-99.99,FreeWX 2.04,2013-12-14 02:59:00,
2013-12-13 22:09:00,33.4,6.1,30.15,North,-999,0.0,0.0,31,0.00,,,-99.99,FreeWX 2.04,2013-12-14 03:09:00,
2013-12-13 22:19:00,33.6,7.7,30.15,North,-999,0.0,0.0,33,0.00,,,-99.99,FreeWX 2.04,2013-12-14 03:19:00,
2013-12-13 22:29:00,33.6,7.7,30.15,North,-999,0.0,0.0,33,0.00,,,-99.99,FreeWX 2.04,2013-12-14 03:29:00,
2013-12-13 22:39:00,33.8,7.2,30.15,North,-999,0.0,0.0,32,0.00,,,-99.99,FreeWX 2.04,2013-12-14 03:39:00,
2013-12-13 22:49:00,34.0,7.3,30.15,North,-999,0.0,0.0,32,0.00,,,-99.99,FreeWX 2.04,2013-12-14 03:49:00,
2013-12-13 22:59:00,34.2,8.1,30.15,North,-999,0.0,4.0,33,0.00,,,-99.99,FreeWX 2.04,2013-12-14 03:59:00,
2013-12-13 23:09:00,34.2,7.3,30.15,North,-999,0.0,0.0,32,0.00,,,-99.99,FreeWX 2.04,2013-12-14 04:09:00,
2013-12-13 23:19:00,33.8,7.2,30.15,North,-999,0.0,0.0,32,0.00,,,-99.99,FreeWX 2.04,2013-12-14 04:19:00,
2013-12-13 23:29:00,34.0,12.2,30.15,North,-999,0.0,0.0,40,0.00,,,-99.99,FreeWX 2.04,2013-12-14 04:29:00,
2013-12-13 23:39:00,33.8,10.4,30.15,North,-999,0.0,0.0,37,0.00,,,-99.99,FreeWX 2.04,2013-12-14 04:39:00,
2013-12-13 23:49:00,33.8,9.7,30.15,North,-999,0.0,0.0,36,0.00,,,-99.99,FreeWX 2.04,2013-12-14 04:49:00,
2013-12-13 23:59:00,34.2,10.0,30.15,North,-999,0.0,0.0,36,0.00,,,-99.99,FreeWX 2.04,2013-12-14 04:59:00,